Naples, FL

4:22 PM EDT on June 26, 2017 (GMT -0400)
Naples Municipal

Weather History for KAPF - June, 2013

Change the Weather History Date:

Saturday, June 29, 2013

  Actual Average Record
Temperature  
Mean Temperature 83 °F 83 °F  
Max Temperature 89 °F 91 °F 96 °F (1980)
Min Temperature 77 °F 75 °F 69 °F (1971)
Degree Days  
Heating Degree Days 0 0  
Month to date heating degree days 0 0  
Since 1 June heating degree days 0 0  
Since 1 July heating degree days 182 260  
Cooling Degree Days 18 18  
Month to date cooling degree days 477 490  
Year to date cooling degree days 1581 1518  
Since 1 June cooling degree days 477 490  
Growing Degree Days 33 (Base 50)    
Moisture  
Dew Point 75 °F    
Average Humidity 80    
Maximum Humidity 97    
Minimum Humidity 63    
Precipitation  
Precipitation 0.00 in 0.35 in 2.75 in (1963)
Month to date precipitation 8.07 8.47  
Year to date precipitation 18.41 20.32  
Snow  
Snow 0.00 in - - ()
Month to date snowfall 0.0  
Since 1 June snowfall 0.0  
Since 1 July snowfall 0.0  
Snow Depth 0.00 in    
Sea Level Pressure  
Sea Level Pressure 29.88 in    
Wind  
Wind Speed 7 mph (SSW)    
Max Wind Speed 14 mph    
Max Gust Speed 18 mph    
Visibility 10 miles    
Events      
T = Trace of Precipitation, MM = Missing Value Source: NWS Daily Summary

Daily Weather History Graph

Daily Weather History Graph

Search for Another Location

Airport or City:

Trip Planner

Search our weather history database for the weather conditions in past years. The results will help you decide how hot, cold, wet, or windy it might be!

Date:

Astronomy

Jun. 29, 2013 Rise Set
Actual Time 6:37 AM EDT 8:23 PM EDT
Civil Twilight 6:11 AM EDT 8:49 PM EDT
Nautical Twilight 5:40 AM EDT 9:20 PM EDT
Astronomical Twilight 5:07 AM EDT 9:53 PM EDT
Moon 12:30 AM EDT (6/29) 1:05 PM EDT (6/29)
Length of Visible Light 14h 37m
Length of Day
13h 45m
Waning Gibbous, 56% of the Moon is Illuminated
Jun 29
Waning Gibbous
Jun 30
Last Quarter
Jul 8
New
Jul 15
First Quarter
Jul 22
Full

Hourly Weather History & Observations

Time (EDT) Temp. Heat Index Dew Point Humidity Pressure Visibility Wind Dir Wind Speed Gust Speed Precip Events Conditions
12:53 AM 80.1 °F 85.4 °F 75.9 °F 87% 29.91 in 10.0 mi ESE 3.5 mph - N/A   Clear
1:53 AM 79.0 °F - 77.0 °F 94% 29.88 in 10.0 mi SE 6.9 mph - N/A   Clear
2:53 AM 78.1 °F - 75.0 °F 90% 29.87 in 10.0 mi East 3.5 mph - N/A   Clear
3:53 AM 78.1 °F - 75.0 °F 90% 29.88 in 10.0 mi Calm Calm - N/A   Clear
4:53 AM 79.0 °F - 75.0 °F 88% 29.88 in 10.0 mi Calm Calm - N/A   Clear
5:53 AM 78.1 °F - 75.9 °F 93% 29.88 in 10.0 mi East 4.6 mph - N/A   Partly Cloudy
6:53 AM 78.1 °F - 75.0 °F 90% 29.88 in 10.0 mi Calm Calm - N/A   Scattered Clouds
7:53 AM 80.1 °F 85.1 °F 75.0 °F 85% 29.89 in 10.0 mi SE 3.5 mph - N/A   Scattered Clouds
8:53 AM 84.0 °F 91.9 °F 75.0 °F 74% 29.90 in 10.0 mi SSW 6.9 mph - N/A   Partly Cloudy
9:53 AM 84.9 °F 92.1 °F 73.9 °F 69% 29.88 in 10.0 mi SW 8.1 mph - N/A   Scattered Clouds
10:53 AM 87.1 °F 96.3 °F 75.0 °F 67% 29.89 in 10.0 mi SW 9.2 mph - N/A   Partly Cloudy
11:53 AM 87.1 °F 96.3 °F 75.0 °F 67% 29.88 in 10.0 mi SW 10.4 mph - N/A   Partly Cloudy
12:53 PM 87.1 °F 97.3 °F 75.9 °F 69% 29.89 in 10.0 mi WSW 12.7 mph 16.1 mph N/A   Scattered Clouds
1:53 PM 88.0 °F 96.5 °F 73.9 °F 63% 29.88 in 10.0 mi WSW 11.5 mph 18.4 mph N/A   Partly Cloudy
2:53 PM 88.0 °F 98.5 °F 75.9 °F 67% 29.86 in 10.0 mi WSW 13.8 mph 17.3 mph N/A   Partly Cloudy
3:53 PM 88.0 °F 98.5 °F 75.9 °F 67% 29.85 in 10.0 mi SW 10.4 mph - N/A   Scattered Clouds
4:53 PM 88.0 °F 97.5 °F 75.0 °F 65% 29.85 in 10.0 mi SW 12.7 mph - N/A   Scattered Clouds
5:53 PM 87.1 °F 97.3 °F 75.9 °F 69% 29.85 in 10.0 mi SW 12.7 mph - N/A   Partly Cloudy
6:53 PM 87.1 °F 96.3 °F 75.0 °F 67% 29.86 in 10.0 mi WSW 10.4 mph - N/A   Partly Cloudy
7:53 PM 84.9 °F 92.1 °F 73.9 °F 69% 29.86 in 10.0 mi SW 8.1 mph - N/A   Partly Cloudy
8:53 PM 84.0 °F 91.9 °F 75.0 °F 74% 29.88 in 10.0 mi WSW 5.8 mph - N/A   Partly Cloudy
9:53 PM 82.9 °F 89.4 °F 73.9 °F 74% 29.88 in 10.0 mi SSW 5.8 mph - N/A   Partly Cloudy
10:53 PM 82.9 °F 89.4 °F 73.9 °F 74% 29.88 in 10.0 mi SSW 3.5 mph - N/A   Partly Cloudy
11:53 PM 82.0 °F 88.6 °F 75.0 °F 79% 29.88 in 10.0 mi SSE 4.6 mph - N/A   Clear